Home   Weather   Sochi   Past weeks

Flag for Russia Past Weather in Sochi, Russia — Yesterday and Last 2 Weeks

Now
55 °F

Overcast.


Feels Like: 55 °F
Forecast: 49 / 61 °F
Wind: No wind

Location: Adler

Current Time: May 22, 2017 at 10:21:06 pm

Latest Report: May 22, 2017 at 10:00 pm


Visibility: N/A

Pressure: 29.89 "Hg

Humidity: 94%

Dew Point: 54 °F

Location of SochiLocation

Past Weather in Sochi — Graph

°F

Sochi Temperature Yesterday

Maximum temperature yesterday: 63 °F (at 3:30 pm)
Minimum temperature yesterday: 52 °F (at 5:00 am)
Average temperature yesterday: 56 °F

High & Low Weather Summary for the Past Weeks

 TemperatureHumidityPressure
High77 °F (May 10, 5:30 am)100% (May 16, 1:30 am)30.18 "Hg (May 16, 1:30 am)
Low48 °F (May 12, 12:30 am)36% (May 10, 5:30 am)29.56 "Hg (May 10, 5:00 am)
Average60 °F81%29.91 "Hg
* Reported May 7 9:00 pm — May 22 9:00 pm, Sochi. Weather by CustomWeather, © 2017

Note: Actual official high and low records may vary slightly from our data, if they occured in-between our weather recording intervals... More about our weather records

Advertising

Sochi Weather History for the Previous 24 Hours

Scroll right to see more
 ConditionsComfort  
Time TempWeatherWind HumidityBarometerVisibility
9:00 pm
Mon, May 22
55 °FSprinkles. Mostly cloudy.3 mph94%29.89 "HgN/A
8:30 pm55 °FMostly cloudy.1 mph94%29.89 "HgN/A
8:00 pm55 °FMostly cloudy.3 mph94%29.89 "HgN/A
7:30 pm55 °FMostly cloudy.3 mph94%29.86 "HgN/A
7:00 pm55 °FMostly cloudy.3 mph94%29.86 "HgN/A
6:30 pm57 °FMostly cloudy.1 mph82%29.83 "HgN/A
6:00 pm57 °FMostly cloudy.8 mph82%29.83 "HgN/A
5:30 pm57 °FMostly cloudy.6 mph82%29.83 "HgN/A
5:00 pm57 °FSprinkles. Mostly cloudy.13 mph82%29.83 "HgN/A
4:30 pm55 °FSprinkles. Mostly cloudy.13 mph88%29.86 "HgN/A
4:00 pm55 °FSprinkles. Mostly cloudy.6 mph94%29.89 "HgN/A
3:30 pm57 °FSprinkles. Mostly cloudy.6 mph82%29.86 "HgN/A
3:00 pm57 °FSprinkles. Mostly cloudy.8 mph94%29.86 "HgN/A
2:30 pm59 °FSprinkles. Mostly cloudy.13 mph82%29.86 "Hg6 mi
2:00 pm61 °FSprinkles. More clouds than sun.1 mph77%29.86 "HgN/A
1:30 pm61 °FMore clouds than sun.6 mph77%29.83 "HgN/A
1:00 pm63 °FMore clouds than sun.6 mph73%29.80 "HgN/A
12:30 pm63 °FMore clouds than sun.3 mph73%29.80 "HgN/A
12:00 pm63 °FMore clouds than sun.3 mph68%29.80 "HgN/A
11:30 am61 °FMore clouds than sun.1 mph77%29.80 "HgN/A
11:00 am61 °FMostly cloudy.3 mph77%29.80 "HgN/A
10:30 am59 °FMostly cloudy.8 mph77%29.80 "HgN/A
10:00 am57 °FMostly cloudy.10 mph82%29.77 "HgN/A
9:30 am57 °FSprinkles. Mostly cloudy.6 mph82%29.77 "HgN/A
9:00 am55 °FSprinkles. Mostly cloudy.8 mph88%29.80 "HgN/A
8:30 am55 °FSprinkles. Mostly cloudy.6 mph82%29.80 "HgN/A
8:00 am55 °FSprinkles. Mostly cloudy.3 mph88%29.83 "HgN/A
7:30 am55 °FSprinkles. Mostly cloudy.1 mph88%29.83 "HgN/A
7:00 am55 °FMostly cloudy.6 mph82%29.80 "HgN/A
6:30 am55 °FMore clouds than sun.1 mph88%29.80 "HgN/A
6:00 am55 °FMore clouds than sun.No wind82%29.80 "HgN/A
5:30 am54 °FMore clouds than sun.6 mph88%29.77 "HgN/A
5:00 am54 °FScattered clouds.1 mph88%29.77 "HgN/A
4:30 am54 °FPassing clouds.3 mph88%29.77 "HgN/A
4:00 am54 °FPassing clouds.8 mph88%29.77 "HgN/A
3:30 am52 °FPassing clouds.1 mph94%29.80 "HgN/A
3:00 am52 °FPassing clouds.3 mph94%29.80 "HgN/A
2:30 am52 °FClear.6 mph88%29.80 "HgN/A
2:00 am52 °FPassing clouds.1 mph94%29.80 "HgN/A
1:30 am52 °FPassing clouds.3 mph94%29.80 "HgN/A
1:00 am54 °FPassing clouds.3 mph88%29.80 "HgN/A
12:30 am54 °FPassing clouds.No wind94%29.83 "HgN/A
12:00 am52 °FPassing clouds.6 mph100%29.83 "HgN/A
11:30 pm
Sun, May 21
54 °FPassing clouds.1 mph88%29.83 "HgN/A
11:00 pm54 °FPassing clouds.3 mph94%29.83 "HgN/A
10:30 pm54 °FPassing clouds.3 mph88%29.83 "HgN/A
10:00 pm54 °FClear.3 mph88%29.83 "HgN/A
Weather by CustomWeather, © 2017

See weather overviewHow to use our weather pages